Location: Songkhla
(7.2000°N, 100.6000°E)
Time: 20:42:43
(UTC+07:00)

Okean 1-7 - Pass Details

Date: 16 April 2026
Orbit: 564 x 587 km, 82.5° (Epoch: 19 May)

Event Time Altitude Azimuth Distance (km) Brightness Sun altitude
Rises 19:25:49 0° 355° (N) 2,746 6.6 -15.4°
Reaches altitude 10° 19:27:59 10° 355° (N) 1,853 5.7 -15.9°
Maximum altitude 19:32:04 86° 268° (W) 572 2.8 -16.9°
Drops below altitude 10° 19:36:11 10° 178° (S) 1,867 5.4 -17.9°
Sets 19:38:22 0° 177° (S) 2,769 6.2 -18.4°
